Wind_Speed
20 19 18 18 17 17 16 14 14 12 11 9 6 5 3 1 1 2 2 2 2 2 3 5 5 5 5 5 5 6 6 6 6 5 5 6 6 5 6 6 6 6 7
19 19 18 17 17 17 16 15 14 13 11 10 8 5 4 2 2 3 3 3 3 3 3 5 6 6 6 6 7 7 7 7 7 7 7 7 7 8 8 8 8 9 9
18 18 17 16 16 16 16 15 13 12 11 10 8 7 5 4 2 2 3 3 4 4 4 5 6 7 7 8 8 8 8 9 9 9 9 9 10 10 10 10 10 10 11
17 17 17 16 15 16 15 15 13 13 12 10 9 7 6 5 3 3 4 4 4 5 5 5 6 7 8 8 9 10 10 10 11 11 11 11 11 11 12 12 13 13 13
16 16 16 16 15 15 15 14 13 13 12 11 10 8 7 6 4 4 4 4 4 5 6 6 7 7 8 9 9 10 11 11 12 12 12 13 13 13 14 14 15 14 15
15 14 15 15 15 15 15 14 13 13 12 11 10 8 7 6 5 4 4 4 5 6 7 7 8 9 9 10 11 11 11 11 12 13 13 14 14 14 14 15 15 15 16
14 14 14 16 16 15 15 14 14 13 13 12 10 9 8 6 6 5 5 5 6 8 8 8 9 10 11 11 11 11 12 12 13 13 14 14 14 14 15 16 17 17 17
14 15 15 15 15 15 15 15 15 14 13 13 12 10 8 7 6 6 6 6 7 8 9 9 10 10 11 11 12 12 12 13 13 14 14 14 14 15 16 18 18 18 19
14 15 14 15 15 15 15 16 15 14 14 13 12 11 9 7 7 7 7 6 7 7 8 10 10 10 11 11 12 13 13 14 14 14 14 15 16 17 17 18 18 18 19
13 14 14 15 15 15 15 16 16 15 14 13 13 12 11 10 8 8 8 7 8 8 8 9 9 10 11 11 12 13 14 14 14 15 15 15 16 17 17 18 18 18 19
13 14 14 15 15 15 16 16 15 15 15 14 14 14 13 12 10 9 9 9 9 9 9 10 10 10 10 11 12 12 14 14 15 15 16 16 16 16 17 17 17 18 18
13 13 14 15 15 15 16 16 16 15 15 15 15 14 13 12 12 11 10 11 12 11 11 11 11 11 11 12 12 13 14 15 15 16 17 17 18 18 18 18 18 19 20
13 13 14 14 15 16 15 15 15 16 16 16 15 15 14 14 13 12 12 12 12 12 12 12 12 12 12 13 13 14 15 16 16 17 17 18 18 18 18 19 20 20 21
14 14 14 15 16 16 16 16 16 16 16 17 17 16 15 15 14 14 13 13 13 13 13 13 13 13 13 14 15 15 16 17 17 18 18 19 20 20 20 21 21 22 23
14 14 15 15 16 17 17 17 17 17 17 18 18 17 17 17 16 15 15 14 14 14 14 14 14 14 15 15 15 16 16 17 18 18 19 19 20 21 21 22 23 24 24
15 15 16 16 16 17 17 17 17 17 18 19 19 19 19 18 18 17 16 16 16 16 16 15 16 15 15 16 16 16 16 17 18 19 19 20 21 22 22 23 24 25 25
17 16 17 17 17 18 18 18 19 19 19 20 20 20 20 20 19 19 18 18 18 17 17 17 17 17 17 17 17 17 18 18 18 20 21 22 22 23 23 24 24 25 26
18 18 19 19 19 20 20 21 21 21 21 20 21 20 21 21 21 20 20 20 19 19 18 18 19 19 18 18 18 18 19 19 19 20 21 22 23 24 24 25 26 26 26
20 21 21 20 20 21 21 22 23 23 23 22 22 22 22 22 22 22 21 20 20 20 20 20 20 20 19 19 20 20 20 20 21 21 22 23 24 24 25 26 27 27 27
22 22 22 22 21 21 22 23 24 24 24 24 24 24 24 24 24 23 22 22 22 22 22 21 21 20 21 21 21 21 21 22 22 23 24 24 24 25 26 27 28 28 28
23 23 24 23 23 23 24 25 25 25 26 26 26 26 25 26 25 24 24 23 23 23 23 23 22 22 22 22 22 23 23 23 23 24 24 26 26 27 28 29 29 29 30
24 24 25 24 25 25 25 26 26 27 27 27 27 26 26 26 25 25 25 24 24 24 24 23 23 24 23 23 23 24 25 25 25 25 26 27 27 28 29 30 30 30 31
26 26 26 26 26 26 27 27 27 27 27 27 26 26 26 26 25 25 25 25 24 24 24 24 25 25 25 25 25 25 25 26 26 26 27 27 28 28 29 30 30 31 31
26 26 27 27 28 27 28 28 28 28 27 27 27 26 27 26 26 26 26 26 26 26 26 26 26 26 25 25 26 26 27 27 27 28 28 29 29 29 30 30 31 32 32
26 27 27 28 29 29 28 29 29 29 28 28 28 28 27 27 27 26 26 27 27 27 27 27 27 26 26 26 27 27 27 28 28 29 29 29 30 30 31 31 31 32 33
28 28 28 28 29 29 29 30 30 29 29 28 28 28 27 27 27 27 27 28 28 28 27 27 26 27 27 27 28 28 28 28 29 29 29 30 31 31 31 32 32 33 33
Wind_Direction
25 25 27 27 24 24 26 27 25 23 21 20 20 15 16 347 249 246 228 228 228 223 209 208 206 209 212 216 222 225 227 228 228 230 231 235 234 235 240 245 253 260 265
20 23 23 23 22 21 24 25 26 26 23 21 19 14 6 338 288 262 248 239 235 232 223 222 223 224 228 232 237 238 239 240 240 241 242 244 244 248 250 253 257 261 264
17 19 20 20 21 19 19 20 22 22 21 19 17 14 11 352 328 286 256 245 238 238 241 233 237 239 240 243 245 244 246 245 247 248 248 250 252 254 257 259 262 264 269
14 17 18 18 18 17 17 17 20 20 18 17 14 11 6 351 330 293 264 248 243 245 248 243 245 249 248 250 251 250 249 249 250 252 251 253 255 256 258 261 263 265 267
12 13 15 16 15 16 16 16 17 17 16 15 14 11 4 350 335 305 279 264 256 252 254 255 256 259 258 258 258 255 252 252 254 256 255 257 259 262 263 263 264 265 266
9 10 12 13 14 15 15 13 15 14 14 13 9 3 358 350 337 325 303 282 273 269 264 262 265 265 263 261 261 259 258 259 259 257 257 260 264 265 265 267 266 269 271
3 5 9 14 13 13 15 14 14 13 12 11 6 359 349 343 335 319 306 294 284 277 272 274 277 273 266 264 263 261 260 263 261 259 261 264 266 268 268 269 271 273 274
2 2 7 10 10 11 13 13 11 9 9 7 4 359 348 339 331 322 311 299 294 287 278 278 281 279 270 264 264 264 264 264 263 264 265 266 269 271 274 274 274 274 274
356 358 2 7 5 6 7 9 9 7 6 4 2 358 351 338 326 319 313 307 302 299 290 284 281 283 277 269 266 264 264 265 266 268 269 270 272 274 276 277 277 276 275
348 350 355 360 359 359 360 3 5 5 2 1 358 353 350 345 332 322 316 310 304 298 296 295 288 285 281 275 271 269 268 269 270 271 273 274 275 278 278 279 280 280 279
339 346 348 351 353 353 354 356 358 359 358 358 356 351 348 344 338 330 319 312 306 300 294 292 289 288 286 281 278 278 276 275 276 276 276 275 276 278 281 284 285 285 283
333 338 340 344 348 348 350 352 353 354 354 355 355 352 350 345 339 331 321 313 308 302 297 296 294 289 289 289 283 280 279 277 276 277 277 277 278 280 282 284 285 285 285
325 327 331 336 341 342 344 346 347 348 348 350 350 349 345 340 336 330 322 317 313 309 303 298 295 291 290 292 293 286 284 281 279 278 277 278 278 280 281 283 284 285 284
320 322 326 329 334 335 337 339 341 341 342 342 342 343 342 338 335 330 323 319 317 315 308 302 296 291 291 293 294 291 289 285 282 281 281 279 280 280 281 283 283 283 284
316 320 320 322 325 328 331 333 333 335 335 334 335 336 334 333 331 329 325 320 317 314 312 309 305 297 294 294 295 296 294 292 287 285 284 283 283 283 284 283 284 285 285
307 313 315 315 318 321 323 325 326 327 328 329 329 330 328 328 327 326 326 323 318 314 309 309 311 305 299 297 296 298 298 296 293 290 287 285 285 286 287 286 286 287 287
300 308 311 310 312 314 315 317 319 319 320 321 322 322 322 322 322 321 320 319 317 312 310 309 309 306 302 300 297 296 295 294 294 293 290 287 285 285 286 287 286 288 289
299 305 306 306 307 309 310 312 314 313 313 316 317 317 316 316 316 317 315 314 315 312 308 307 306 304 302 301 299 298 297 294 294 295 293 291 289 289 289 288 288 289 292
294 299 301 303 303 304 306 308 310 313 312 312 313 313 313 312 312 311 310 310 310 309 308 307 305 303 301 300 299 297 297 296 296 295 294 293 294 294 295 295 293 293 294
289 293 297 300 300 301 303 305 306 308 309 309 310 311 310 309 308 307 306 305 306 305 305 305 304 304 302 300 298 297 297 296 294 294 294 294 294 294 296 296 296 294 294
284 289 292 296 298 300 302 304 305 305 307 307 307 309 308 308 306 305 304 303 302 303 303 303 302 302 301 299 298 298 298 297 296 295 296 297 297 297 297 296 296 294 294
282 285 288 291 295 298 300 302 303 304 305 305 305 306 305 306 305 304 303 302 302 302 302 300 300 300 300 299 297 297 299 300 299 298 298 298 298 298 299 298 297 295 295
279 283 286 289 293 296 298 300 301 302 304 304 304 304 304 304 303 303 302 302 303 303 301 300 301 302 302 302 300 299 299 299 299 299 299 299 299 299 299 298 297 297 296
279 282 285 288 291 293 295 297 300 301 302 303 302 303 302 301 301 301 301 301 301 302 301 300 301 302 302 302 302 301 301 300 300 300 299 299 299 300 300 299 298 297 297
281 282 284 287 289 292 294 297 298 300 301 302 301 301 300 299 300 301 301 301 301 301 301 301 300 301 302 302 302 301 301 301 302 301 300 300 300 301 301 301 300 298 297
280 282 285 286 289 292 294 296 298 299 300 301 301 301 301 300 300 300 301 301 301 301 300 300 300 301 301 302 303 302 302 301 302 302 302 302 302 301 301 300 300 299 298
Height
5924 5920 5917 5914 5912 5909 5906 5904 5902 5900 5898 5897 5896 5895 5895 5895 5895 5895 5895 5895 5895 5895 5895 5896 5896 5897 5897 5897 5898 5898 5898 5898 5898 5899 5899 5899 5899 5899 5898 5898 5897 5897 5896
5925 5922 5919 5916 5913 5910 5908 5905 5903 5900 5899 5897 5896 5896 5895 5894 5894 5894 5894 5894 5894 5894 5894 5895 5895 5895 5896 5896 5896 5897 5897 5897 5897 5897 5897 5897 5898 5897 5897 5896 5896 5895 5894
5926 5923 5920 5917 5914 5911 5908 5905 5903 5901 5899 5898 5896 5895 5895 5894 5893 5893 5893 5893 5892 5893 5893 5893 5893 5894 5894 5894 5894 5895 5895 5895 5895 5895 5896 5895 5895 5895 5895 5894 5894 5893 5892
5926 5923 5921 5917 5914 5912 5909 5906 5904 5902 5900 5898 5896 5895 5894 5893 5893 5892 5892 5891 5891 5892 5891 5891 5892 5892 5892 5892 5892 5892 5892 5892 5892 5893 5893 5893 5893 5893 5893 5892 5891 5891 5890
5926 5924 5921 5918 5915 5912 5909 5907 5904 5902 5900 5898 5897 5895 5894 5893 5892 5892 5891 5890 5890 5890 5890 5890 5890 5890 5890 5890 5890 5889 5889 5890 5890 5890 5890 5890 5889 5889 5889 5889 5888 5888 5887
5926 5924 5921 5919 5916 5913 5910 5907 5905 5902 5900 5898 5897 5895 5894 5893 5892 5891 5890 5890 5889 5889 5888 5888 5888 5888 5887 5887 5887 5886 5886 5886 5886 5886 5886 5886 5886 5886 5885 5885 5884 5883 5883
5926 5924 5921 5919 5916 5913 5910 5907 5905 5902 5900 5898 5896 5894 5893 5892 5891 5890 5889 5888 5887 5887 5886 5886 5885 5885 5884 5884 5884 5883 5883 5883 5883 5882 5882 5882 5882 5881 5881 5880 5880 5879 5878
5926 5924 5922 5919 5916 5914 5911 5908 5905 5903 5900 5898 5896 5894 5892 5891 5890 5889 5888 5887 5886 5885 5884 5884 5883 5882 5881 5881 5881 5880 5880 5880 5880 5879 5879 5878 5878 5877 5877 5876 5875 5874 5873
5926 5924 5921 5919 5916 5914 5911 5908 5905 5903 5900 5897 5895 5893 5891 5889 5888 5887 5886 5885 5884 5883 5882 5881 5880 5879 5878 5877 5877 5877 5876 5876 5876 5876 5875 5874 5874 5873 5872 5871 5870 5869 5868
5925 5923 5921 5918 5916 5913 5910 5908 5905 5902 5899 5897 5894 5892 5890 5888 5887 5885 5884 5883 5882 5881 5880 5878 5877 5876 5875 5874 5873 5873 5872 5872 5872 5871 5871 5870 5869 5868 5867 5866 5865 5864 5863
5924 5922 5920 5917 5914 5912 5909 5907 5904 5901 5899 5896 5894 5891 5889 5887 5885 5884 5882 5881 5879 5878 5877 5875 5874 5873 5872 5871 5870 5869 5868 5868 5867 5867 5866 5866 5865 5864 5863 5861 5860 5859 5858
5923 5921 5919 5916 5913 5911 5908 5906 5903 5900 5898 5895 5893 5890 5888 5886 5884 5882 5880 5878 5877 5875 5873 5872 5871 5870 5869 5867 5866 5865 5864 5863 5863 5862 5861 5861 5860 5859 5858 5856 5855 5853 5852
5921 5919 5917 5915 5912 5910 5907 5905 5902 5899 5897 5894 5891 5889 5887 5884 5882 5880 5878 5876 5874 5872 5870 5869 5868 5866 5865 5864 5862 5861 5860 5859 5858 5857 5856 5855 5854 5853 5852 5851 5849 5848 5846
5919 5917 5914 5912 5910 5908 5905 5903 5900 5898 5895 5892 5890 5887 5885 5882 5880 5877 5875 5873 5871 5869 5867 5866 5864 5863 5861 5860 5858 5857 5855 5854 5853 5852 5851 5850 5849 5848 5846 5845 5843 5842 5840
5916 5914 5912 5910 5907 5905 5903 5900 5898 5895 5893 5890 5888 5885 5883 5880 5878 5875 5872 5870 5868 5866 5864 5862 5860 5859 5857 5855 5854 5852 5850 5849 5848 5846 5845 5844 5843 5841 5840 5839 5837 5835 5833
5913 5911 5909 5907 5905 5902 5900 5898 5895 5893 5890 5888 5885 5883 5880 5877 5875 5872 5869 5867 5865 5863 5861 5859 5857 5855 5853 5851 5849 5847 5845 5844 5842 5841 5839 5838 5837 5835 5833 5832 5830 5828 5826
5909 5907 5905 5904 5901 5899 5897 5894 5892 5890 5887 5885 5882 5879 5877 5874 5871 5869 5866 5863 5861 5859 5857 5855 5852 5850 5848 5846 5844 5842 5840 5839 5837 5835 5834 5832 5830 5828 5827 5825 5823 5821 5819
5904 5903 5902 5900 5898 5896 5894 5891 5888 5885 5882 5880 5878 5875 5872 5870 5867 5865 5862 5859 5857 5854 5852 5850 5848 5846 5843 5841 5839 5837 5835 5833 5831 5829 5828 5826 5824 5822 5820 5818 5816 5814 5811
5899 5899 5897 5896 5894 5892 5889 5887 5884 5881 5878 5875 5873 5870 5868 5865 5863 5860 5858 5855 5852 5850 5848 5845 5843 5841 5838 5836 5834 5832 5830 5828 5826 5823 5822 5820 5818 5816 5813 5811 5808 5806 5803
5894 5894 5892 5891 5889 5887 5885 5882 5880 5877 5874 5871 5868 5865 5863 5860 5857 5855 5852 5850 5847 5845 5843 5840 5838 5835 5833 5831 5828 5826 5824 5822 5819 5817 5815 5813 5811 5808 5806 5804 5801 5798 5796
5889 5888 5887 5885 5883 5881 5879 5877 5874 5871 5868 5865 5863 5860 5857 5854 5851 5849 5847 5844 5842 5839 5837 5835 5832 5830 5827 5824 5822 5820 5818 5815 5813 5810 5808 5806 5803 5801 5798 5796 5793 5790 5787
5883 5882 5881 5879 5877 5875 5873 5871 5868 5866 5862 5859 5856 5853 5851 5848 5846 5843 5840 5838 5835 5833 5830 5828 5826 5824 5821 5818 5815 5813 5811 5809 5806 5804 5801 5798 5796 5793 5790 5787 5784 5781 5778
5876 5875 5874 5872 5871 5869 5866 5864 5862 5859 5856 5853 5850 5847 5845 5842 5839 5837 5834 5832 5829 5827 5825 5822 5820 5817 5814 5812 5809 5807 5804 5801 5799 5796 5793 5790 5787 5785 5782 5779 5776 5773 5769
5868 5868 5867 5865 5864 5862 5860 5858 5855 5852 5849 5847 5844 5840 5838 5835 5833 5830 5828 5826 5823 5821 5818 5816 5813 5810 5808 5805 5802 5799 5797 5794 5791 5788 5785 5782 5779 5776 5773 5770 5767 5764 5760
5861 5861 5860 5858 5857 5855 5853 5851 5848 5846 5843 5840 5837 5834 5831 5829 5826 5824 5821 5819 5816 5814 5811 5808 5806 5803 5801 5798 5795 5792 5789 5786 5783 5780 5777 5774 5771 5768 5764 5761 5758 5754 5751
5854 5853 5852 5851 5850 5848 5846 5844 5841 5839 5836 5833 5830 5827 5825 5822 5819 5817 5814 5812 5809 5807 5804 5801 5799 5796 5793 5790 5787 5784 5781 5778 5775 5772 5768 5765 5762 5759 5755 5752 5748 5745 5741